EDT,Max TemperatureF,Mean TemperatureF,Min TemperatureF,Max Dew PointF,MeanDew PointF,Min DewpointF,Max Humidity, Mean Humidity, Min Humidity, Max Sea Level PressureIn, Mean Sea Level PressureIn, Min Sea Level PressureIn, Max VisibilityMiles, Mean VisibilityMiles, Min VisibilityMiles, Max Wind SpeedMPH, Mean Wind SpeedMPH, Max Gust SpeedMPH,PrecipitationIn, CloudCover, Events, WindDirDegrees
2013-6-1,88,77,68,64,63,60,84,62,46,30.03,29.94,29.82,10,10,10,17,8,26,0.00,3,,194
2013-6-2,81,74,69,67,61,56,93,67,45,29.88,29.84,29.80,10,10,10,18,11,26,0.08,4,Rain,226
2013-6-3,68,63,54,57,52,38,83,67,51,30.08,29.96,29.87,10,10,10,12,7,17,0.00,7,,334
2013-6-4,73,60,48,46,42,39,74,52,35,30.18,30.13,30.08,10,10,10,9,4,,0.00,0,,346
2013-6-5,82,68,55,59,52,44,69,56,47,30.15,30.05,29.94,10,10,10,12,5,21,0.00,1,,101
2013-6-6,71,66,62,65,62,58,100,91,63,29.94,29.84,29.79,10,5,0,13,8,17,1.13,8,Fog-Rain,148
2013-6-7,66,63,59,63,60,53,100,93,77,29.87,29.80,29.76,10,4,0,10,3,25,0.01,8,Fog,329
2013-6-8,72,64,57,55,53,52,87,71,55,30.12,30.00,29.88,10,10,6,9,3,,0.00,6,,295
2013-6-9,82,71,60,63,59,55,86,66,44,30.18,30.10,30.03,10,9,6,8,4,20,0.00,3,,113
2013-6-10,75,70,64,70,66,63,100,86,76,30.03,29.86,29.80,10,8,1,12,6,,0.70,7,Rain,177
2013-6-11,78,70,64,66,63,61,94,82,60,29.90,29.85,29.80,10,8,2,14,9,21,0.00,6,Rain,250
2013-6-12,82,75,68,70,65,62,84,72,54,29.92,29.86,29.76,10,10,8,12,6,,0.00,2,Rain,230
2013-6-13,73,68,61,72,63,54,96,84,73,29.79,29.67,29.55,10,8,1,21,12,31,0.88,7,Rain-Thunderstorm,272
2013-6-14,73,65,57,57,55,52,90,75,48,30.07,29.95,29.81,10,10,7,12,6,16,0.00,4,,318
2013-6-15,77,66,55,55,51,46,90,59,33,30.14,30.08,30.02,10,10,10,10,5,16,0.00,1,,261
2013-6-16,73,68,62,66,62,54,93,81,63,30.02,29.95,29.92,10,8,2,15,8,24,0.28,7,Rain,220
2013-6-17,82,74,66,66,62,54,94,71,39,29.99,29.95,29.91,10,9,6,10,6,,0.00,3,,254
2013-6-18,77,70,64,66,62,59,94,80,67,29.96,29.90,29.86,10,9,0,14,4,16,0.29,3,Fog-Rain,314
2013-6-19,75,66,57,58,50,45,90,59,37,30.16,30.08,29.97,10,10,10,9,6,,0.00,0,,4
2013-6-20,81,68,55,55,51,46,86,53,31,30.24,30.20,30.16,10,10,9,6,1,,0.00,0,,304
2013-6-21,84,72,60,60,56,54,93,58,37,30.27,30.23,30.17,10,9,4,6,2,,0.00,0,,180
2013-6-22,86,75,64,67,64,58,90,66,51,30.22,30.16,30.09,10,9,5,12,6,17,0.00,1,,191
2013-6-23,88,78,69,69,66,62,90,65,46,30.17,30.12,30.07,10,10,6,12,7,20,0.00,1,,202
2013-6-24,89,78,69,67,64,62,87,61,43,30.15,30.09,30.02,10,10,10,10,6,,0.00,1,,224
2013-6-25,89,77,66,67,65,57,94,70,48,30.06,29.99,29.91,10,9,1,17,9,39,0.02,2,Rain-Thunderstorm,220
2013-6-26,82,74,66,68,66,64,100,88,58,30.00,29.93,29.83,10,5,0,14,8,22,1.59,7,Fog-Rain-Thunderstorm,188
2013-6-27,75,72,69,70,68,63,96,88,74,29.82,29.73,29.66,10,7,1,16,6,21,0.57,6,Rain,220
2013-6-28,78,70,64,67,65,62,94,84,66,29.66,29.59,29.52,10,9,6,15,6,30,0.06,5,Rain,209
2013-6-29,79,70,60,64,61,59,96,77,56,29.70,29.62,29.56,10,10,7,14,6,23,0.01,2,,204
2013-6-30,82,72,62,66,64,61,100,84,53,29.86,29.78,29.70,10,6,0,20,4,30,0.35,2,Rain-Thunderstorm,138